Skip Page Navigation
NASA JPL Caltech
NASA Logo - Jet Propulsion Laboratory + View the NASA Portal
+ Center for Near-Earth Object Studies
JPL Home Earth Solar System Stars & Galaxies Technology
JPL Solar System Dynamics
BODIES ORBITS EPHEMERIDES TOOLS PHYSICAL DATA DISCOVERY FAQ SITE MAP
JPL Small-Body Database Browser
Search: [ help ]  
79134 (1990 VO8)
Classification: Main-belt Asteroid          SPK-ID: 2079134
Ephemeris | Orbit Diagram | Orbital Elements | Mission Design | Physical Parameters | Discovery Circumstances | Close-Approach Data ]

[ show orbit diagram ]
Orbital Elements at Epoch 2459000.5 (2020-May-31.0) TDB
Reference: JPL 20 (heliocentric ecliptic J2000)
 Element Value Uncertainty (1-sigma)   Units 
e .300134571213432 4.936e-08  
a 2.561997905077875 1.1663e-08 au
q 1.793053762387616 1.2168e-07 au
i 6.498312817208241 6.4792e-06 deg
node 130.9644155537762 3.0541e-05 deg
peri 263.2451197888149 3.309e-05 deg
M 82.06694551786187 1.4072e-05 deg
tp 2458659.045884888845
(2019-Jun-24.54588489)
5.7448e-05 TDB
period 1497.843993880111
4.10
1.0228e-05
2.8e-08
d
yr
n .2403454575181978 1.6412e-09 deg/d
Q 3.330942047768134 1.5164e-08 au
  Orbit Determination Parameters
   # obs. used (total)      834  
   data-arc span      10770 days (29.49 yr)  
   first obs. used      1990-10-25  
   last obs. used      2020-04-20  
   planetary ephem.      DE431  
   SB-pert. ephem.      SB431-N16  
   condition code      0  
   norm. resid. RMS      .52918  
   source      ORB  
   producer      Otto Matic  
   solution date      2020-May-20 14:37:49  

Additional Information
 Earth MOID = .813427 au 
 Jupiter MOID = 2.1447 au 
 T_jup = 3.361 
[ show covariance matrix ]

Ephemeris | Orbit Diagram | Orbital Elements | Mission Design | Physical Parameters | Discovery Circumstances | Close-Approach Data ]

Physical Parameter Table
Parameter Symbol Value Units Sigma Reference Notes
absolute magnitude H 15.5   n/a MPO351400  

79134 (1990 VO8)          Discovered 1990-Nov-15 by Elst, E. W. at La Silla
Reference: 20040504/Numbers.arcLast Updated: 2004-07-16

[ show close-approach data ]
Alternate Designations
 1990 VO8 = 1998 SN169 
Ephemeris | Orbit Diagram | Orbital Elements | Mission Design | Physical Parameters | Discovery Circumstances | Close-Approach Data ]
ABOUT SSD CREDITS/AWARDS PRIVACY/COPYRIGHT GLOSSARY LINKS
FirstGov 2020-Sep-23 06:40 UT
(server date/time)  
NASA Home Page
Site Manager:   Ryan S. Park
Webmaster  Alan B. Chamberlin